Back to catalog

TIANHUI 2-01A

AliveScienceSSO
NORAD 44207·PAYLOAD·🇨🇳 China

Launched Apr 29, 2019 from Taiyuan Satellite Launch Center

Loading…

Next Passes (next 24 hours)

TLE

FreshSource: Space-Track

Epoch: Sep 14, 2026, 11:40 UTC

1 44207U 19024A   26257.48631281  .00001255  00000-0  67380-4 0  9999
2 44207  97.4848 260.2535 0001543 106.3184 253.8219 15.16747988115674

Track TIANHUI 2-01A in real time with AllMySat

Download on the App Store